This is the latest recevied weather packets stored in our database for station/object SA3PJN-WX. If no packets are shown the sender has not sent any weather packets the latest 10 day(s).
| Time | Temp. | Humidity | Pressure | Rain* | Wind** | Luminosity | Snow |
|---|---|---|---|---|---|---|---|
| 1778167511 | 8.33° C | 40% | 973 hPa | - | - | - | - |
| 1778167181 | 8.33° C | 39% | 972.6 hPa | - | - | - | - |
| 1778166851 | 8.89° C | 38% | 972.6 hPa | - | - | - | - |
| 1778166551 | 8.89° C | 39% | 972.5 hPa | - | - | - | - |
| 1778166251 | 8.33° C | 38% | 972.4 hPa | - | - | - | - |
| 1778165921 | 8.89° C | 38% | 972.4 hPa | - | - | - | - |
| 1778165621 | 9.44° C | 35% | 972.3 hPa | - | - | - | - |
| 1778165291 | 10° C | 33% | 972.4 hPa | - | - | - | - |
| 1778164961 | 11.67° C | 33% | 972.3 hPa | - | - | - | - |
| 1778164661 | 12.22° C | 31% | 972.4 hPa | - | - | - | - |
| 1778164361 | 12.78° C | 33% | 972.4 hPa | - | - | - | - |
| 1778164031 | 11.67° C | 34% | 972.3 hPa | - | - | - | - |
| 1778163731 | 11.67° C | 35% | 972.4 hPa | - | - | - | - |
| 1778163401 | 10.56° C | 34% | 972.3 hPa | - | - | - | - |
| 1778163101 | 9.44° C | 38% | 972.4 hPa | - | - | - | - |
| 1778162771 | 8.89° C | 40% | 972.3 hPa | - | - | - | - |
| 1778162471 | 8.33° C | 39% | 972.2 hPa | - | - | - | - |
| 1778162171 | 8.89° C | 37% | 972.3 hPa | - | - | - | - |
| 1778161871 | 8.89° C | 37% | 972.3 hPa | - | - | - | - |
| 1778161571 | 8.89° C | 36% | 972.2 hPa | - | - | - | - |
| 1778161271 | 9.44° C | 36% | 972.1 hPa | - | - | - | - |
| 1778160971 | 9.44° C | 38% | 972.1 hPa | - | - | - | - |
| 1778160671 | 8.33° C | 38% | 972 hPa | - | - | - | - |
| 1778160371 | 9.44° C | 37% | 972 hPa | - | - | - | - |
| 1778160071 | 8.89° C | 36% | 972 hPa | - | - | - | - |
* Rain since midnight (hover to see other rain measurements)
** Current wind speed in m/s (hover to see current wind gust speed)